Content
SEND FEEDBACK

United States of America Flag

ROLLA, MISSOURI


Home > North America > United States > Missouri
Elevation: 1095 feet     Latitude: 38 07N     Longitude: 091 46W

WEATHER
 
SELECT A DAY
Number of Records: 220,792;   Date Range: 1/1/95 - 3/22/16
 
SHARE

PRINT THIS DATA

[ ← Previous Day ]
WEATHER ALMANAC - OCTOBER 13, 2013
[ Next Day → ]
[ °C ]   °F
Weather ElementAverageHighLow
Temperature57.8 °F72 °F (3:53 pm)46.9 °F (1:53 am)
Dewpoint38.2 °F42.1 °F (6:53 pm)34 °F (2:53 pm)
Humidity51.3 %77 % (1:53 am)26 % (2:53 pm)
Barometer30.31 in30.40 in (10:53 am)30.25 in (1:53 am)
Wind Speed6.3 mph10.4 mph (9:53 am)
Weather ElementAverage
Visibility10 mi
Wind DirectionNE (44.3 °)

Weather ElementTotal
Precipitation---
Heating Degree Days5.6 (Base 65)
Growing Degree Days9.5 (Base 50)
Averaged from 23 records on October 13, 2013
WEATHER CONDITIONS BREAKOUT
WIND DIRECTION BREAKOUT
WEATHER BY HOUR - OCTOBER 13, 2013
[ °C ]   °F
Local TimeTemperatureDewpointHumidityBarometerVisibilityWind DirectionWind SpeedGust SpeedPrecipitationEventsConditions
1:53 AM46.9 °F39.9 °F77 %30.25 in10.0 miNNE (20°)4.6 mphClear
2:53 AM48.9 °F39.0 °F69 %30.26 in10.0 miNNE (20°)4.6 mphClear
3:53 AM48.9 °F39.0 °F69 %30.26 in10.0 miNNE (30°)6.9 mphClear
4:53 AM48.0 °F39.0 °F71 %30.28 in10.0 miNE (50°)4.6 mphClear
5:53 AM48.0 °F37.9 °F68 %30.30 in10.0 miNE (50°)5.8 mphClear
6:53 AM46.9 °F37.9 °F71 %30.31 in10.0 miNE (40°)8.1 mphClear
7:53 AM48.9 °F37.9 °F66 %30.33 in10.0 miNE (40°)6.9 mphClear
8:53 AM55.0 °F39.0 °F55 %30.36 in10.0 miENE (60°)9.2 mphClear
9:53 AM60.1 °F39.0 °F46 %30.36 in10.0 miENE (70°)10.4 mphClear
10:53 AM63.0 °F37.0 °F38 %30.40 in10.0 miEast (80°)9.2 mphClear
11:53 AM66.0 °F36.0 °F33 %30.38 in10.0 miEast (80°)10.4 mphPartly Cloudy
12:53 PM68.0 °F37.9 °F33 %30.35 in10.0 miVariable4.6 mphScattered Clouds
1:53 PM69.1 °F35.1 °F29 %30.33 in10.0 miVariable5.8 mphClear
2:53 PM71.1 °F34.0 °F26 %30.31 in10.0 miNNE (20°)5.8 mphMostly Cloudy
3:53 PM72.0 °F36.0 °F27 %30.29 in10.0 miNE (40°)5.8 mphMostly Cloudy
4:53 PM70.0 °F37.9 °F31 %30.28 in10.0 miNE (50°)5.8 mphMostly Cloudy
5:53 PM66.9 °F41.0 °F39 %30.28 in10.0 miENE (70°)4.6 mphClear
6:53 PM57.9 °F42.1 °F56 %30.29 in10.0 miNE (40°)3.5 mphOvercast
7:53 PM55.0 °F41.0 °F59 %30.31 in10.0 miCalmPartly Cloudy
8:53 PM54.0 °F39.9 °F59 %30.30 in10.0 miENE (70°)5.8 mphClear
9:53 PM55.0 °F37.9 °F53 %30.31 in10.0 miENE (60°)6.9 mphClear
10:53 PM54.0 °F37.9 °F55 %30.31 in10.0 miENE (60°)6.9 mphClear
11:53 PM55.0 °F36.0 °F49 %30.31 in10.0 miENE (70°)8.1 mphClear
Hourly data recorded from KVIH, located miles away from Rolla, Missouri




STORIES FROM OUR PARTNERS